Flag for USA

Past Weather in Tehachapi, California, USA — Yesterday and Last 2 Weeks

Now
66 °F

Sunny.


Feels Like: 66 °F
Forecast: 84 / 42 °F
Wind: 13 mph from Northwest

Location: Tehachapi Municipal Airport
Current Time: Sep 19, 2020 at 7:05:07 pm
Latest Report: Sep 19, 2020 at 6:15 pm
Visibility: 8 mi
Pressure30.03 "Hg(26.06 "Hg at 1212m altitude)
Humidity: 56%
Dew Point: 50 °F
Location of TehachapiLocation

Past Weather in Tehachapi — Graph

°F

Tehachapi Temperature Yesterday

Maximum temperature yesterday: 82 °F (at 1:15 pm)
Minimum temperature yesterday: 52 °F (at 5:35 am)
Average temperature yesterday: 66 °F

High & Low Weather Summary for the Past Weeks

 TemperatureHumidityPressure
High100 °F (Sep 6, 12:15 pm)100% (Sep 19, 4:35 am)30.26 "Hg (Sep 19, 4:35 am)
Low43 °F (Sep 12, 4:15 am)4% (Sep 17, 1:55 pm)29.86 "Hg (Sep 8, 3:35 pm)
Average69 °F34%30.13 "Hg
* Reported Sep 4 5:15 pm — Sep 19 5:55 pm, Tehachapi. Weather by CustomWeather, © 2020

Note: Actual official high and low records may vary slightly from our data, if they occured in-between our weather recording intervals... More about our weather records

Tehachapi Weather History for the Previous 24 Hours

Scroll right to see more
 ConditionsComfort  
Time TempWeatherWind HumidityBarometerVisibility
5:55 pm
Sat, Sep 19
68 °FSunny.13 mph53%30.03 "Hg7 mi
5:35 pm68 °FSunny.10 mph53%30.03 "Hg8 mi
4:55 pm72 °FSunny.14 mph47%30.03 "Hg7 mi
4:35 pm72 °FSunny.17 mph47%30.03 "Hg7 mi
4:15 pm73 °FSunny.17 mph44%30.03 "Hg8 mi
3:55 pm73 °FSunny.16 mph41%30.03 "Hg7 mi
3:35 pm73 °FSunny.14 mph41%30.03 "Hg6 mi
3:15 pm75 °FSunny.15 mph39%30.04 "Hg7 mi
2:55 pm73 °FSunny.14 mph44%30.04 "Hg7 mi
2:35 pm73 °FSunny.18 mph44%30.05 "Hg7 mi
2:15 pm73 °FSunny.15 mph44%30.05 "Hg5 mi
1:55 pm73 °FSunny.16 mph44%30.06 "Hg6 mi
1:35 pm73 °FSunny.15 mph44%30.06 "Hg6 mi
1:15 pm72 °FSunny.16 mph47%30.07 "Hg5 mi
12:55 pm72 °FSunny.17 mph47%30.07 "Hg5 mi
12:35 pm73 °FSunny.18 mph44%30.07 "Hg5 mi
12:15 pm72 °FSunny.15 mph47%30.07 "Hg6 mi
11:55 am72 °FSunny.15 mph47%30.08 "Hg6 mi
11:35 am72 °FSunny.15 mph47%30.08 "Hg6 mi
11:15 am72 °FSunny.12 mph47%30.09 "Hg5 mi
10:55 am70 °FSunny.8 mph50%30.09 "Hg5 mi
10:35 am68 °FSunny.8 mph53%30.09 "Hg4 mi
10:15 am66 °FSunny.8 mph60%30.10 "Hg5 mi
9:55 am64 °FSunny.10 mph64%30.10 "Hg4 mi
9:35 am64 °FSunny.10 mph64%30.10 "Hg4 mi
8:55 am63 °FSunny.8 mph73%30.10 "Hg4 mi
8:35 am59 °FSunny.5 mph82%30.10 "Hg4 mi
8:15 am55 °FFog.No wind100%30.10 "Hg3 mi
7:55 am54 °FFog.3 mph100%30.10 "Hg2 mi
7:35 am54 °FFog.6 mph100%30.10 "Hg2 mi
7:15 am52 °FFog.5 mph100%30.10 "Hg2 mi
6:35 am52 °FFog.6 mph100%30.09 "Hg4 mi
6:15 am52 °FFog.7 mph100%30.08 "Hg5 mi
5:55 am54 °FFog.5 mph94%30.08 "Hg5 mi
5:35 am54 °FFog.6 mph94%30.08 "Hg6 mi
4:55 am54 °FFog.5 mph94%30.08 "Hg5 mi
4:35 am54 °FFog.7 mph100%30.08 "Hg4 mi
4:15 am54 °FFog.6 mph94%30.08 "Hg4 mi
3:55 am54 °FFog.6 mph88%30.08 "Hg4 mi
3:35 am55 °FFog.6 mph82%30.08 "Hg5 mi
3:15 am55 °FClear.7 mph82%30.08 "Hg5 mi
2:55 am57 °FClear.7 mph77%30.08 "Hg5 mi
2:35 am59 °FClear.9 mph72%30.09 "Hg5 mi
2:15 am59 °FClear.8 mph72%30.09 "Hg5 mi
1:55 am59 °FClear.9 mph72%30.09 "Hg5 mi
1:35 am61 °FClear.13 mph68%30.09 "Hg5 mi
1:15 am59 °FClear.10 mph68%30.09 "Hg5 mi
12:35 am59 °FClear.8 mph68%30.10 "Hg5 mi
12:15 am61 °FClear.8 mph63%30.10 "Hg5 mi
11:55 pm
Fri, Sep 18
61 °FClear.8 mph63%30.10 "Hg5 mi
11:35 pm63 °FClear.8 mph59%30.10 "Hg5 mi
11:15 pm63 °FClear.8 mph59%30.10 "Hg5 mi
10:55 pm63 °FClear.5 mph59%30.10 "Hg5 mi
10:35 pm63 °FClear.6 mph59%30.10 "Hg5 mi
10:15 pm63 °FClear.6 mph59%30.10 "Hg5 mi
9:55 pm63 °FClear.6 mph59%30.10 "Hg5 mi
9:35 pm63 °FClear.8 mph64%30.10 "Hg5 mi
9:15 pm63 °FClear.7 mph64%30.10 "Hg5 mi
8:55 pm64 °FClear.8 mph60%30.10 "Hg5 mi
8:35 pm64 °FClear.5 mph60%30.10 "Hg5 mi
8:15 pm64 °FClear.7 mph60%30.09 "Hg5 mi
7:55 pm66 °FClear.8 mph56%30.09 "Hg5 mi
7:35 pm66 °FClear.10 mph56%30.09 "Hg5 mi
7:15 pm66 °FClear.10 mph56%30.08 "Hg5 mi
Weather by CustomWeather, © 2020

See weather overview